Location: Clarion
(42.7316°N, 93.7330°W)
Time: 09:46:49
(UTC+00:00)

CZ-3 R/B - Pass Details

Date: 22 April 2026
Orbit: 564 x 9991 km, 28.2° (Epoch: 16 May)

Event Time Altitude Azimuth Distance (km) Brightness Sun altitude
Rises 10:36:37 0° 267° (W) 11,327 6.4 -8.6°
Reaches altitude 10° 10:48:33 10° 263° (W) 8,400 5.7 -6.6°
Maximum altitude 11:08:07 36° 206° (SSW) 2,919 3.6 -3.3°
Drops below altitude 10° 11:15:06 10° 141° (SE) 3,062 4.4 -2.1°
Sets 11:17:10 0° 131° (SE) 3,625 5.0 -1.7°
